Location: Beacon Field Observatory
(38.7700°N, 77.0829°W)
Time: 06:55:52
(UTC-05:00)

UKube-1 - Pass Details

Date: 15 December 2019
Orbit: 614 x 618 km, 98.5° (Epoch: 18 January)

Event Time Altitude Azimuth Distance (km) Brightness Sun altitude
Rises 05:42:49 0° 199° (SSW) 2,866 ? -18.1°
Reaches altitude 10° 05:45:27 10° 216° (SW) 1,967 ? -17.6°
Enters shadow 05:46:41 16° 230° (SW) 1,637 ? -17.4°
